Home > Weather > Kitzbühel > Past weeks

Flag for Austria Past Weather in Kitzbühel, Tyrol, Austria — Yesterday and Last 2 Weeks

Now
65 °F

Mild.


Feels Like: 65 °F
Forecast: 58 / 77 °F
Wind: 1 mph from Southwest

Location: Kufstein

Current Time: Jul 23, 2016 at 11:13:44 AM

Latest Report: Jul 23, 2016 at 9:00 AM


Visibility: N/A

Pressure: 30.03 "Hg (27.51 "Hg at 750m altitude)

Humidity: 89%

Dew Point: 62 °F

Location of KitzbühelLocation

Past Weather in Kitzbühel — Graph

°F

Kitzbühel Temperature Yesterday

Maximum temperature yesterday: 81 °F (at 4:00 PM)
Minimum temperature yesterday: 61 °F (at 6:00 AM)
Average temperature yesterday: 68 °F

High & Low Weather Summary for the Past Weeks

 TemperatureHumidityPressure
High89 °F (Jul 10, 4:00 PM)97% (Jul 12, 11:00 PM)30.36 "Hg (Jul 12, 11:00 PM)
Low49 °F (Jul 14, 7:00 AM)30% (Jul 8, 7:00 PM)29.78 "Hg (Jul 11, 4:00 PM)
Average65 °F78%30.07 "Hg
* Reported Jul 8 9:00 AM — Jul 23 9:00 AM, Kitzbühel, Weather by CustomWeather, © 2016

Note: Actual official high and low records may vary slightly from our data, if they occured in-between our weather recording intervals... More about our weather records

Advertising

Kitzbühel Weather History for the Previous 24 Hours

Scroll right to see more
 ConditionsComfort  
Time TempWeatherWind HumidityBarometerVisibility
9:00 AM
Sat, Jul 23
65 °FMild.1 mph89%30.03 "HgN/A
8:00 AM64 °FMild.2 mph93%30.03 "HgN/A
6:00 AM62 °FCool.1 mph96%30.04 "HgN/A
5:00 AM63 °FMild.1 mph95%30.03 "HgN/A
4:00 AM63 °FMild.1 mph95%30.03 "HgN/A
3:00 AM63 °FMild.No wind95%30.03 "HgN/A
2:00 AM63 °FMild.No wind96%30.03 "HgN/A
1:00 AM63 °FMild.1 mph97%30.02 "HgN/A
12:00 AM64 °FMild.No wind96%30.01 "HgN/A
11:00 PM
Fri, Jul 22
64 °FMild.No wind96%30.01 "HgN/A
10:00 PM64 °FMild.1 mph95%30.01 "HgN/A
9:00 PM64 °FSprinkles. Overcast.2 mph95%29.98 "HgN/A
8:00 PM65 °FMild.1 mph95%30.01 "HgN/A
7:00 PM65 °FSprinkles. Cloudy.1 mph94%30.00 "HgN/A
6:00 PM64 °FMild.3 mph90%29.97 "HgN/A
5:00 PM78 °FWarm.2 mph61%29.86 "HgN/A
4:00 PM81 °FWarm.3 mph57%29.85 "HgN/A
3:00 PM79 °FWarm.3 mph61%29.87 "HgN/A
2:00 PM77 °FWarm.1 mph66%29.89 "HgN/A
1:00 PM77 °FMild.2 mph66%29.90 "HgN/A
12:00 PM75 °FMild.2 mph67%29.94 "HgN/A
11:00 AM72 °FMild.1 mph70%29.97 "HgN/A
Weather by CustomWeather, © 2016

See weather overviewHow to use our weather pages